Printer-friendly version

IAU Minor Planet Center

Minor Planet Center

MPEC 2009-M45 : 2007 SV11

The following Minor Planet Electronic Circular may be linked-to from your own Web pages, but must not otherwise be redistributed electronically.


Read MPEC 2009-M44 Read MPEC 2009-M46


M.P.E.C. 2009-M45                                Issued 2009 June 28, 22:41 UT

     The Minor Planet Electronic Circulars contain information on unusual
         minor planets and routine data on comets.  They are published
   on behalf of Commission 20 of the International Astronomical Union by the
          Minor Planet Center, Smithsonian Astrophysical Observatory,
                          Cambridge, MA 02138, U.S.A.

             Prepared using the Tamkin Foundation Computer Network

                              MPC@CFA.HARVARD.EDU
          URL http://www.cfa.harvard.edu/iau/mpc.html  ISSN 1523-6714

                                   2007 SV11

                           Revision to MPEC 2007-T02

Additional Observations:
     K07S11V 2C2009 04 05.32185208 30 47.079-16 49 43.35         21.7 R EM045568
     K07S11V 2C2009 04 05.32382608 30 47.045-16 49 42.26         21.6 R EM045568
     K07S11V 2C2009 04 05.32559508 30 47.008-16 49 41.54         22.0 R EM045568
     K07S11V 2C2009 04 05.32738108 30 46.963-16 49 40.60         22.2 R EM045568
     K07S11V 2C2009 06 02.26203709 02 18.840-12 40 47.25         22.8 R EM045568
     K07S11V 2C2009 06 02.26460809 02 19.024-12 40 47.28         22.8 R EM045568
     K07S11V 2C2009 06 02.26709609 02 19.209-12 40 47.23         22.3 R EM045568
     K07S11V 2C2009 06 02.27021409 02 19.415-12 40 47.39         22.5 R EM045568

Observer details:
568 Mauna Kea.  Observers M. Micheli, G. T. Elliott, D. J. Tholen.  Measurers
    M. Micheli, G. T. Elliott.  2.24-m University of Hawaii reflector + CCD.

First and last observations above in comparison with prediction:
Residuals in seconds of arc, reference and Delta-T
090405 568  2.5+  6.5-    090602 568  2.2+  4.5-    MPO133539   -0.011 day

Orbital elements:
2007 SV11                                                Earth MOID = 0.1102 AU
Epoch 2009 June 18.0 TT = JDT 2455000.5                 MPC
M 279.60435              (2000.0)            P               Q
n   0.43156106     Peri.   23.64983     +0.66146715     +0.56468979
a   1.7342348      Node   292.29592     -0.74460286     +0.41586196
e   0.4937625      Incl.   32.23720     -0.08959797     +0.71287044
P   2.28           H   18.2           G   0.15           U   2
Residuals in seconds of arc
070927 G96  0.3-  0.3-    071001 734  0.1+  0.6-    071024 G96  0.0   0.2-
070927 G96  0.5+  0.2-    071001 734  0.5-  0.1+    071024 G96  0.6+  0.0
070927 G96  0.1-  0.4-    071001 734  0.1-  0.4+    071024 G96  0.6+  0.0
070927 G96  0.2-  0.1-    071003 448  0.1+  0.3-    071025 448  0.3+  0.1+
070927 G96  0.1-  0.0     071003 448  0.0   0.0     071025 448  1.0+  0.2-
070927 G96  0.4-  0.3-    071003 448  0.7-  0.4+    071025 448  0.2+  0.4-
070927 G96  0.1-  0.3-    071003 J95  0.7-  0.3-    071025 G96  0.5+  0.1-
070927 G96  0.2+  0.4-    071003 J95  0.2-  0.1+    071025 G96  0.4+  0.9-
070927 D35  0.7+  1.0+    071003 J95  0.2-  0.5+    071025 G96  0.3+  0.1-
070927 D35  1.1+  1.0+    071004 240  1.1+  0.6-    071025 G96  0.0   0.4+
070929 B03  0.0   0.5+    071004 240  0.1-  0.4-    071128 B03  0.0   0.4+
070929 B03  0.1-  0.1-    071004 240  0.8-  0.5-    071128 B03  0.1-  0.7+
070929 B03  0.8+  0.4+    071004 240  0.6-  0.2+    071128 B03  0.3-  0.5+
070929 B03  0.0   0.2-    071008 448  0.2-  0.1+    071128 B03  0.4-  0.3-
070929 B03  0.1-  1.3+    071008 448  0.4+  0.7-    071128 B03  1.2+  0.7+
070929 B03  0.4+  0.2+    071008 448  0.1-  0.2-    071225 H55  0.3-  0.2+
070930 246  0.1+  1.1-    071008 703  1.1-  0.8-    071225 H55  0.2-  0.3-
070930 246  0.8+  0.3-    071008 703  0.5-  0.7+    071231 448  0.2+  0.3-
070930 246  0.2+  0.4-    071008 703  0.9-  0.5+    071231 448  0.6+  0.9-
070930 246  0.5-  0.4-    071008 703  0.7-  1.2+    071231 448  0.1+  0.3+
070930 246  0.4-  0.0     071008 B03  0.4+  0.3+    080121 H55  1.1+  1.1+
070930 246  1.0+  0.7-    071008 B03  0.8+  0.2+    080121 H55  0.5-  0.4+
070930 246  0.4+  0.4+    071008 B03  0.3+  0.5+    080121 H55  0.0   1.0+
070930 246  0.7+  0.6-    071012 448  0.2+  0.4-    090405 568  0.1-  0.1-
070930 B03  0.8+  0.2-    071012 448  0.2+  0.5-    090405 568  0.0   0.1+
070930 B03  0.5+  0.0     071012 448  0.4+  0.4+    090405 568  0.0   0.1-
070930 B03  0.1-  0.5+    071016 448  0.2+  0.1+    090405 568  0.1-  0.0
070930 B03  0.1+  0.6+    071016 448  0.1+  0.1-    090602 568  0.0   0.0
070930 473  0.6-  0.1-    071016 448  0.0   0.0     090602 568  0.0   0.0
070930 473  0.3+  0.2-    071017 448  0.4-  0.1-    090602 568  0.1+  0.1+
070930 473  1.1+  0.3-    071017 448  0.4+  0.6-    090602 568  0.1-  0.0
071001 734  0.5+  0.8-    071017 448  0.2-  0.2+
071001 734  0.3-  0.0     071024 G96  0.1+  0.0

Ephemeris:
2007 SV11                a,e,i = 1.73, 0.49, 32                  q = 0.8779
Date    TT    R. A. (2000) Decl.     Delta      r     Elong.  Phase     V
2009 06 28    09 38.70   -13 41.1    2.240    1.935    59.6    26.9    22.6
2009 07 08    09 55.46   -14 31.7    2.264    1.878    55.1    26.4    22.5
2009 07 18    10 13.63   -15 36.4    2.278    1.818    51.0    25.7    22.5
2009 07 28    10 33.25   -16 54.1    2.281    1.755    47.1    25.1    22.4
2009 08 07    10 54.40   -18 23.5    2.273    1.691    43.6    24.4    22.3
2009 08 17    11 17.23   -20 02.8    2.256    1.623    40.4    23.8    22.1
2009 08 27    11 41.95   -21 49.7    2.230    1.554    37.4    23.3    22.0
2009 09 06    12 08.79   -23 41.0    2.196    1.483    34.7    22.8    21.8
2009 09 16    12 38.07   -25 32.2    2.156    1.410    32.2    22.3    21.7
2009 09 26    13 10.11   -27 17.4    2.110    1.336    29.8    21.9    21.5
2009 10 06    13 45.17   -28 48.7    2.061    1.262    27.5    21.5    21.3
2009 10 16    14 23.42   -29 56.4    2.010    1.189    25.3    21.0    21.1
2009 10 26    15 04.79   -30 28.9    1.959    1.117    23.3    20.6    20.9
2009 11 05    15 48.82   -30 14.1    1.909    1.050    21.4    20.2    20.7
2009 11 15    16 34.70   -29 01.6    1.861    0.990    19.9    19.9    20.5
2009 11 25    17 21.34   -26 44.5    1.817    0.940    19.0    20.0    20.4
2009 12 05    18 07.63   -23 22.0    1.776    0.902    18.9    20.7    20.2
2009 12 15    18 52.82   -19 00.1    1.741    0.882    19.9    22.3    20.2
2009 12 25    19 36.56   -13 50.4    1.713    0.879    21.8    24.5    20.2
2010 01 04    20 18.93   -08 07.9    1.695    0.895    24.3    26.9    20.3
2010 01 14    21 00.28   -02 09.3    1.689    0.929    27.1    28.9    20.4
2010 01 24    21 41.03   +03 49.4    1.698    0.976    29.9    30.2    20.6
2010 02 03    22 21.43   +09 33.2    1.724    1.034    32.2    30.6    20.8
2010 02 13    23 01.66   +14 49.7    1.768    1.099    34.1    30.2    20.9
2010 02 23    23 41.65   +19 29.9    1.831    1.170    35.2    29.1    21.1
2010 03 05    00 21.21   +23 28.3    1.909    1.243    35.5    27.6    21.3
2010 03 15    01 00.07   +26 43.3    2.000    1.317    35.1    25.7    21.5
2010 03 25    01 37.93   +29 16.3    2.101    1.391    34.0    23.6    21.6
2010 04 04    02 14.50   +31 10.6    2.209    1.464    32.2    21.4    21.8
2010 04 14    02 49.58   +32 30.6    2.321    1.536    29.9    19.0    21.9
2010 04 24    03 23.03   +33 20.8    2.433    1.605    27.2    16.6    22.0
2010 05 04    03 54.76   +33 45.8    2.542    1.673    24.1    14.2    22.2
2010 05 14    04 24.78   +33 49.4    2.647    1.739    20.7    11.9    22.2
2010 05 24    04 53.13   +33 35.0    2.744    1.802    17.2     9.5    22.3
2010 06 03    05 19.85   +33 05.6    2.833    1.862    13.6     7.3    22.3
2010 06 13    05 45.03   +32 23.4    2.911    1.921    10.3     5.4    22.4
2010 06 23    06 08.77   +31 30.4    2.977    1.976     8.1     4.2    22.4
2010 07 03    06 31.12   +30 28.3    3.030    2.029     8.3     4.1    22.5
2010 07 13    06 52.20   +29 18.3    3.069    2.080    11.0     5.3    22.7
2010 07 23    07 12.04   +28 01.6    3.092    2.128    15.1     7.1    22.8
2010 08 02    07 30.72   +26 39.2    3.100    2.173    19.8     9.1    23.0
2010 08 12    07 48.29   +25 11.9    3.093    2.216    25.0    11.1    23.1
2010 08 22    08 04.74   +23 40.4    3.069    2.256    30.5    13.1    23.2
2010 09 01    08 20.11   +22 05.3    3.030    2.295    36.2    15.1    23.2
2010 09 11    08 34.38   +20 27.3    2.975    2.330    42.3    16.9    23.3
2010 09 21    08 47.49   +18 46.9    2.905    2.363    48.6    18.6    23.3
2010 10 01    08 59.39   +17 04.7    2.821    2.394    55.2    20.1    23.3
2010 10 11    09 09.98   +15 21.2    2.724    2.423    62.1    21.4    23.3
2010 10 21    09 19.10   +13 37.0    2.615    2.449    69.4    22.4    23.3
2010 10 31    09 26.58   +11 52.7    2.497    2.473    77.1    23.0    23.2
2010 11 10    09 32.16   +10 09.0    2.373    2.495    85.3    23.3    23.2

Gareth V. Williams           (C) Copyright 2009 MPC           M.P.E.C. 2009-M45

Read MPEC 2009-M44 Read MPEC 2009-M46

Valid HTML 4.01!